This is the latest recevied weather packets stored in our database for station/object WA6GRA. If no packets are shown the sender has not sent any weather packets the latest 10 day(s).
| Time | Temp. | Humidity | Pressure | Rain* | Wind** | Luminosity | Snow |
|---|---|---|---|---|---|---|---|
| 1778060658 | 11.11° C | 87% | 1017.5 hPa | 0 mm | - | 0 W/m² | - |
| 1778060059 | 11.11° C | 87% | 1017.9 hPa | 0 mm | - | 0 W/m² | - |
| 1778059454 | 11.67° C | 86% | 1017.7 hPa | 0 mm | - | 0 W/m² | - |
| 1778058854 | 11.67° C | 85% | 1017.8 hPa | 0 mm | - | 0 W/m² | - |
| 1778058255 | 12.78° C | 83% | 1017.9 hPa | 0 mm | - | 0 W/m² | - |
| 1778057654 | 12.78° C | 81% | 1017.9 hPa | 0 mm | - | 0 W/m² | - |
| 1778057053 | 12.78° C | 81% | 1018.1 hPa | 0 mm | - | 0 W/m² | - |
| 1778056453 | 12.78° C | 83% | 1017.9 hPa | 0 mm | - | 0 W/m² | - |
| 1778055853 | 12.22° C | 85% | 1017.8 hPa | 0 mm | - | 0 W/m² | - |
| 1778055253 | 12.22° C | 85% | 1017.7 hPa | 0 mm | - | 0 W/m² | - |
| 1778054652 | 12.78° C | 84% | 1017.9 hPa | 0 mm | - | 0 W/m² | - |
| 1778054048 | 12.78° C | 84% | 1017.6 hPa | 0 mm | - | 0 W/m² | - |
| 1778053448 | 12.78° C | 84% | 1017.7 hPa | 0 mm | - | 0 W/m² | - |
| 1778052843 | 12.78° C | 83% | 1017.8 hPa | 0 mm | - | 0 W/m² | - |
| 1778052243 | 12.78° C | 82% | 1017.6 hPa | 0 mm | - | 0 W/m² | - |
| 1778051638 | 13.33° C | 81% | 1017.5 hPa | 0 mm | - | 0 W/m² | - |
| 1778051037 | 13.33° C | 81% | 1017.4 hPa | 0 mm | - | 0 W/m² | - |
| 1778050432 | 13.33° C | 80% | 1017.2 hPa | 0 mm | - | 0 W/m² | - |
| 1778049829 | 13.33° C | 80% | 1017.1 hPa | 0 mm | - | 0 W/m² | - |
| 1778049225 | 13.89° C | 80% | 1017.2 hPa | 0 mm | - | 0 W/m² | - |
| 1778048620 | 13.89° C | 79% | 1016.9 hPa | 0 mm | - | 0 W/m² | - |
| 1778048019 | 14.44° C | 77% | 1016.9 hPa | 0 mm | - | 0 W/m² | - |
| 1778047415 | 15° C | 75% | 1017 hPa | 0 mm | - | 0 W/m² | - |
| 1778046814 | 15° C | 75% | 1016.7 hPa | 0 mm | - | 0 W/m² | - |
| 1778046214 | 14.44° C | 75% | 1016.7 hPa | 0 mm | - | 0 W/m² | - |
* Rain latest hour (hover to see other rain measurements)
** Current wind speed in m/s (hover to see current wind gust speed)